    Orbital elements:
    1999 RH27
    Epoch 2000 Feb. 26.0 TT = JDT 2451600.5                 Williams
    M  14.47251              (2000.0)            P               Q
    n   0.20124050     Peri.   95.36575     +0.18541456     -0.98243044
    a   2.8839814      Node   343.90158     +0.86848953     +0.17395405
    e   0.5765933      Incl.    4.39663     +0.45972533     +0.06760480
    P   4.90           H   16.8           G   0.15           U   0
    Residuals in seconds of arc
    940901 033  0.2-  0.3+    991110 121  0.3+  0.0     000101 944  0.4+  0.1-
    990905 703  0.2+  1.2+    991114 699  0.2-  0.1-    000101 944  0.5-  0.1-
    990905 703  0.3-  0.8+    991114 699  0.4-  0.4+    000101 944  0.4+  0.1+
    990905 703  0.5-  0.0     991114 699  0.4-  0.8+    000101 461  0.1+  0.1+
    990905 703  0.5-  0.2-    991115 726  0.5+  0.5-    000101 461  0.2+  0.2-
    990905 557  0.2+  0.2-    991115 726  0.4-  0.3-    000101 461  0.4+  0.0
    990905 557  0.5-  0.4-    991115 726  0.6-  0.8-    000101 461  0.1+  0.0
    990905 557  0.5+  0.5+    991115 557  0.2+  0.1+    000102 610  0.1-  0.0
    990905 557  0.1+  0.5+    991115 557  0.1+  0.0     000102 610  0.0   0.1-
    990905 046  0.4+  0.4+    991115 557  0.2+  0.0     000102 610  0.2+  0.1-
    990905 046  0.4+  0.0     991115 557  0.2+  0.0     000102 610  0.3+  0.1-
    990905 046  0.1+  0.1-    991116 557  0.2+  0.0     000102 610  0.4+  0.1-
    990905 046  0.1-  0.6-    991116 557  0.2+  0.0     000103 670  0.3-  0.4-
    990906 658  0.3-  0.9+    991116 670  0.7+  0.0     000103 670  0.1-  0.3-
    990906 658  0.0   0.7+    991116 670  0.8+  0.2+    000103 670  0.2-  0.4-
    990906 658  0.4-  0.2+    991116 670  0.9+  0.2+    000103 151  0.5-  0.6-
    990907 118  0.1-  0.5+    991116 360  0.0   0.0     000103 151  0.2-  0.7-
    990907 118  0.5-  0.7+    991116 360  0.0   0.1+    000103 151  0.2-  0.6-
    990907 118  0.9-  1.0+    991116 360  0.0   0.0     000103 151  0.2-  0.5-
    990907 859  1.2-  0.7-    991117 952  0.1-  0.6-    000103 151  0.0   0.9-
    990907 859  1.4-  0.0     991117 952  0.1+  0.6-    000103 151  0.1-  0.2-
    990907 859  0.9+  1.7+    991117 952  0.2-  0.5-    000104 610  0.4+  0.4-
    990907 734  0.1+  0.5+    991117 952  0.0   0.6-    000104 610  0.5+  0.4-
    990907 734  0.0   0.6+    991117 952  0.0   0.5-    000104 944  0.2-  0.5-
    990907 734  0.1+  0.5+    991117 952  0.0   0.3-    000104 610  0.4+  0.4-
    990907 143  0.7-  1.5+    991118 402  0.0   0.1-    000104 944  0.3-  0.8-
    990908 143  0.4-  0.2+    991118 402  0.1-  0.1-    000104 610  0.5+  0.5-
    990908 143  0.8-  1.0+    991118 402  0.0   0.1-    000104 610  0.5+  0.4-
    990908 557  0.2-  0.5+    991120 744  0.1-  0.4-    000104 944  0.5-  0.1-
    990908 557  0.2-  0.5+    991120 744  0.1+  0.3-    000104 944  0.0   0.2+
    990908 557  0.3-  0.3+    991120 744  0.1+  0.2-    000104 944  0.7-  1.1+
    990909 046  0.0   0.5+    991120 540  0.3-  0.4+    000105 127  0.1+  0.1-
    990909 046  0.0   0.6+    991120 540  0.4-  0.1+    000105 127  0.2-  0.4+
    990909 046  0.3-  0.9+    991120 540  0.3-  0.3+    000106 610  0.2+  0.2+
    990909 046  0.2-  0.5+    991120 540  0.3-  0.4+    000106 610  0.3+  0.2+
    990909 595  0.4-  0.9+    991120 046  0.3-  0.0     000106 610  0.4+  0.1+
    990909 595  0.7-  1.1+    991120 046  0.4-  0.0     000106 610  0.6+  0.0
    990909 118  0.4-  1.2+    991120 046  0.2-  0.0     000106 610  0.7+  0.0
    990909 118  0.2+  0.0     991126 557  0.0   0.1-    000106 639  0.2-  0.1-
    990909 118  0.8-  0.3-    991126 557  0.0   0.1-    000106 639  0.0   0.2+
    990911 118  0.9-  0.5+    991126 557  0.1-  0.0     000106 639  0.4-  0.4+
    990911 118  0.3-  0.5+    991126 557  0.1-  0.0     000107 127  0.0   0.1+
    990911 848  0.0   0.0     991127 739  0.1+  0.1-    000107 127  0.3+  0.2+
    990911 848  0.2-  0.1-    991127 739  0.0   0.2-    000107 127  0.2+  0.0
    990911 848  0.5-  0.3-    991127 151  0.1+  0.1-    000107 557  0.2+  0.1+
    990911 108  0.5+  2.7+    991127 151  0.5-  0.1-    000107 557  0.2-  0.2+
    990911 108  0.7-  0.2-    991127 151  0.4+  0.2-    000108 151  0.0   0.4+
    990912 360  0.0   0.2-    991127 151  0.0   0.3-    000108 151  0.5-  0.1-
    990912 360  0.1-  0.0     991127 151  0.3+  0.2-    000108 151  0.4-  0.1-
    990912 360  0.1+  0.0     991128 726  0.2-  1.1-    000108 151  0.6-  0.1+
    990913 848  0.7-  0.6+    991128 726  0.1-  0.3-    000108 151  0.5-  0.1-
    990913 848  0.7-  0.2-    991128 726  0.0   0.1+    000108 151  0.4-  0.2-
    990913 848  0.5-  0.1-    991128 355  0.1-  0.0     000109 049  0.3-  0.0
    990915 118  0.3-  0.2-    991128 355  0.0   0.1+    000109 049  0.2-  0.0
    990915 118  0.1-  0.3-    991128 355  0.2+  0.2+    000109 049  0.3-  0.0
    990915 658  0.2-  0.1+    991128 900  0.1-  0.1+    000111 639  0.0   0.1-
    990915 658  0.1-  0.1+    991128 900  0.2-  0.1+    000111 639  0.2-  0.1+
    990915 658  0.1-  0.0     991128 610  0.2+  0.2-    000111 639  1.2-  0.8+
    990915 848  0.2-  0.2-    991128 610  0.1+  0.3-    000112 639  0.5+  0.1+
    990915 848  0.2-  0.2-    991128 610  0.1+  0.3-    000112 639  0.1+  0.3+
    990915 848  0.2-  0.3+    991128 610  0.1-  0.3-    000112 639  0.5+  0.0
    990916 118  0.4+  0.0     991128 610  0.0   0.4-    000113 151  1.4-  0.3+
    990916 118  0.1+  0.6-    991129 726  0.2+  0.5-    000113 151  0.5-  0.1+
    990916 118  0.2+  0.2-    991129 726  0.3+  0.4-    000113 151  0.7-  0.6-
    990917 848  0.5+  0.3-    991129 726  0.1+  0.4-    000113 151  0.4-  0.5+
    990917 848  0.6-  0.4-    991129 726  0.3+  0.2-    000113 151  0.4+  0.2-
    990917 848  1.2-  0.1-    991130 610  0.4+  0.1-    000113 151  0.3+  0.5+
    990918 699  0.7-  0.3-    991130 610  0.2+  0.2-    000113 113  0.1-  0.1-
    990918 699  0.1-  0.3+    991130 610  0.1-  0.3-    000113 113  0.1-  0.0
    990918 699  0.1-  0.6+    991130 610  0.4-  0.3-    000113 113  0.1-  0.3+
    990920 848  0.5-  0.2+    991130 610  0.6-  0.3-    000113 113  0.1+  0.2+
    990920 848  0.7+  0.5-    991203 642 (2.8+  3.3-)   000113 113  0.6+  0.5+
    990924 118  0.2+  0.0     991203 642  1.5+  0.8-    000114 557  0.0   0.1+
    990924 118  0.1-  0.3+    991203 642  0.6-  1.6-    000114 557  0.2+  0.0
    990927 848  0.2-  2.0+    991203 151  0.1+  0.7-    000114 557  0.3+  0.0
    990927 848  1.3-  0.1+    991203 151  0.3-  0.5-    000115 151  0.4-  0.0
    990927 848  1.4-  1.1-    991203 151  0.6-  1.4-    000115 151  0.2+  0.7-
    991003 704  0.1+  1.6-    991203 151  0.4-  0.4-    000115 151  0.1-  0.0
    991003 704  1.0+  2.0+    991203 610  2.4+  0.8-    000115 151  0.3-  0.4-
    991003 704  0.3+  0.5+    991203 151  0.7+  1.1-    000115 151  0.4+  0.2-
    991003 704  0.1-  0.1+    991203 151  0.1-  0.6-    000115 151  0.1-  0.1+
    991003 704  0.4+  0.3+    991203 610  1.3+  0.9-    000121 610  0.1-  0.5+
    991004 360  0.4-  0.1-    991203 610  0.2+  0.9-    000121 610  0.1-  0.3+
    991004 360  0.4-  0.2-    991203 610  0.9-  0.8-    000121 610  0.1-  0.1+
    991004 360  0.7-  0.2-    991203 610  2.0-  0.8-    000121 610  0.1-  0.1-
    991004 108  0.6+  0.0     991204 355  0.2-  0.5-    000121 610  0.1-  0.2-
    991004 108  2.3+  0.6-    991204 355  0.1+  0.3-    000123 610  0.3-  0.1+
    991004 108 (4.7-  2.8-)   991204 355  0.3+  0.5-    000123 610  0.6-  0.2+
    991007 143  0.1-  0.2+    991204 482  1.2+  0.7-    000123 610  0.9-  0.3+
    991007 143  0.3-  0.2+    991204 482  0.9+  0.5-    000123 610  1.1-  0.4+
    991007 143  0.4-  0.2+    991204 482  1.0+  0.8-    000123 610  1.4-  0.5+
    991007 143  0.4-  0.2+    991204 482  0.8+  0.9-    000123 639  0.4-  1.3+
    991012 704  0.1+  0.2-    991206 106  0.2-  0.1-    000123 639  0.4-  0.8-
    991012 704  0.3+  0.0     991206 106  0.2-  0.3+    000124 046  0.2+  0.1-
    991012 704  0.5+  0.1+    991206 482  0.1+  0.2-    000124 046  0.2+  0.2+
    991012 704  0.2+  0.1+    991206 482  0.2+  0.4-    000124 046  0.2+  0.3+
    991012 704  0.4+  0.2+    991206 482  0.1+  0.2-    000125 610  0.5-  0.2-
    991012 151  1.1+  0.1-    991206 482  0.0   0.3+    000125 610  0.5-  0.3-
    991012 151  1.3+  0.9+    991207 108  0.1+  0.3-    000125 610  0.4-  0.4-
    991012 151  0.6+  0.6+    991207 108  0.8+  0.3+    000125 610  0.2-  0.4-
    991012 151  0.5+  0.6+    991207 108  0.5+  0.1+    000125 610  0.1-  0.4-
    991012 151  0.2-  1.0-    991208 057 (3.3+  1.9+)   000126 642  0.9-  0.0
    991012 151  0.2+  0.0     991208 057  1.2-  2.0+    000126 642  1.3-  0.8-
    991013 071  0.1-  0.0     991208 057  0.8-  1.5+    000126 642  0.1+  0.3+
    991013 071  0.1-  0.1+    991208 057  1.6-  0.5+    000126 642  0.5+  1.0-
    991013 071  0.1+  0.0     991208 057  0.2+  0.1+    000126 900  0.2-  0.0
    991013 704  0.2+  0.2-    991208 057  0.6+  0.3-    000126 900  0.4-  0.2+
    991013 704  0.1-  0.3+    991208 057  0.7-  1.6+    000126 151  1.1-  0.0
    991013 704  0.1-  0.3+    991209 355  0.2-  0.2-    000126 151  0.3-  0.0
    991013 704  0.2-  0.9+    991209 355  0.2-  0.1-    000126 151  0.5-  0.3-
    991014 118  0.1+  0.0     991209 355  0.3-  0.2-    000126 151  0.6-  0.5-
    991014 118  0.1+  0.1-    991210 118  1.0-  0.8+    000126 151  0.5-  0.2+
    991014 118  0.1+  0.0     991210 118  1.0-  0.7+    000126 151  0.2-  0.1-
    991014 151  1.3+  1.1-    991211 726  0.1+  0.4+    000127 610  1.0-  0.3-
    991014 151  1.0-  0.5-    991211 726  0.2+  0.1+    000127 610  0.8-  0.1-
    991014 151  1.0+  0.5+    991211 726  0.0   0.2+    000127 610  0.6-  0.1-
    991016 151  0.0   0.0     991211 726  0.0   0.0     000127 610  0.5-  0.0
    991016 151  0.7-  0.0     991211 726  0.1+  0.5+    000127 610  0.4-  0.1+
    991016 151  0.1+  0.4-    991211 726  0.5+  0.4-    000129 704  0.0   0.5+
    991016 151  0.3+  0.5-    991212 726  0.6-  0.2+    000129 704  0.1+  0.4+
    991016 151  0.4+  0.5+    991212 726  0.1-  0.2+    000129 704  0.6+  0.8+
    991017 151  0.5+  0.3+    991212 726  0.1+  0.4+    000129 704  0.6+  0.9+
    991017 151  1.1-  0.3+    991212 726  1.1+  0.7+    000129 704  0.6+  1.2+
    991017 151  0.7+  0.6-    991212 726 (4.2+  4.2+)   000129 670  1.5+  1.2-
    991017 151  0.8+  0.7+    991212 482  0.6-  0.2-    000129 670  1.0+  1.2-
    991017 151  0.1+  0.3-    991212 482  1.2-  0.1-    000130 642  0.1+  1.5-
    991017 151  0.0   0.5+    991212 482  0.5+  0.5+    000130 642  0.7+  1.2+
    991017 118  0.3-  0.1-    991213 726  0.9+  0.6+    000130 610  0.8+  0.5+
    991017 118  0.3-  0.1+    991213 726  0.7+  0.7+    000130 610  0.8+  0.4+
    991018 670  0.5+  0.0     991213 726  0.6+  0.8+    000130 610  0.9+  0.4+
    991018 658  0.1-  0.0     991213 726  0.7+  0.9+    000130 610  1.0+  0.3+
    991018 658  0.1-  0.0     991213 726  0.7+  0.4+    000130 610  1.0+  0.2+
    991018 658  0.1+  0.2-    991213 726  0.5+  0.6+    000201 557  0.0   0.2+
    991018 670  0.4+  0.2+    991213 704  0.6+  0.6+    000201 557  0.2+  0.0
    991020 900  0.3-  0.2-    991213 704  0.4+  0.2+    000202 670  0.0   0.1-
    991020 900  0.3-  0.1-    991213 704  0.4+  0.1+    000202 670  0.2+  0.2+
    991020 402  0.1-  0.4-    991213 704  0.2+  0.0     000202 355  0.2+  0.0
    991020 402  0.2-  0.4-    991213 704  0.0   0.3-    000202 355  0.4+  0.0
    991020 402  0.2-  0.4-    991213 670  0.4+  0.7+    000202 355  0.0   0.2-
    991022 046  0.1-  0.1+    991213 670  0.6+  0.7+    000203 860  0.2+  0.3+
    991022 046  0.2-  0.3+    991213 118  0.2-  0.2-    000203 860  0.1-  0.1-
    991022 046  0.4-  0.3+    991213 118  0.0   0.1-    000203 860  0.0   0.1+
    991022 046  0.0   0.2+    991214 670  0.2-  0.2+    000203 557  0.4+  0.1+
    991023 151  0.6+  0.1-    991214 670  0.2+  0.5+    000203 557  0.2+  0.1+
    991023 151  0.2+  0.3+    991215 355  0.4+  0.1-    000204 557  0.3+  0.0
    991023 151  0.3-  0.9-    991215 355  0.7+  0.0     000204 557  0.1+  0.1+
    991023 151  0.8-  0.8-    991215 355  0.4+  0.2-    000204 355  0.2+  0.1+
    991023 151  0.5-  0.5-    991217 670  0.1+  0.2-    000204 355  0.2+  0.3-
    991023 151  1.1-  0.8-    991217 670  0.5+  0.1-    000204 355  0.5+  0.2-
    991027 151  0.7+  0.0     991217 610  0.0   0.1+    000206 151  1.4-  0.5+
    991027 151  0.3+  0.7-    991217 610  0.0   0.1-    000206 151  0.8-  0.6-
    991027 151  0.1-  0.3-    991217 610  0.0   0.1-    000206 151  0.0   0.0
    991027 151  0.6-  0.8-    991217 610  0.1-  0.2-    000206 151  0.5-  0.2+
    991027 151  0.4+  0.1+    991217 610  0.0   0.3-    000206 151  0.6-  0.2+
    991027 151  0.1+  0.1+    991217 118  0.0   0.2+    000206 151  0.9-  0.5+
    991028 355  0.1+  0.0     991217 118  0.1+  0.1+    000206 118  0.2+  0.4-
    991028 355  0.2-  0.3+    991219 900  0.1-  0.0     000206 118  0.4-  0.2-
    991028 355  0.3-  0.1-    991219 900  0.2-  0.0     000206 118  0.4+  0.1+
    991029 118  0.2-  0.2+    991221 726  0.1-  0.2+    000210 642  0.8-  0.7-
    991029 118  0.3-  0.2+    991221 726  0.4-  0.2+    000210 642  0.6+  0.6-
    991030 699  0.3-  0.1+    991221 726  0.7-  0.2-    000210 642  0.4-  0.6+
    991030 699  0.0   0.6+    991221 726  0.3-  0.1-    000210 355  0.3+  0.0
    991030 699  0.2+  0.8+    991221 726  0.3-  0.0     000210 355  0.8+  0.7+
    991031 151  0.3-  0.0     991221 726  0.6-  0.1+    000210 557  0.2+  0.0
    991031 151  0.4-  0.0     991221 670  0.4-  0.3+    000210 557  0.2+  0.2-
    991031 151  0.2-  0.0     991221 670  0.4-  0.1+    000210 557  0.2+  0.1-
    991031 151  0.4-  0.1+    991221 670  0.3-  0.4+    000210 610  2.0+  0.6-
    991031 151  0.5-  0.3+    991221 610  0.5+  0.2-    000210 610  1.4+  0.6-
    991101 629  1.6+  0.3-    991221 610  0.4+  0.3-    000210 610  0.7+  0.4-
    991101 629  0.4+  0.6+    991221 610  0.3+  0.3-    000210 610  0.0   0.4-
    991101 629  0.2+  0.7-    991221 610  0.2+  0.4-    000210 610  0.7-  0.3-
    991101 750  0.7-  0.3+    991221 610  0.2+  0.4-    000210 557  0.3+  0.2-
    991101 750  0.8-  0.1+    991222 726  0.0   0.0     000210 557  0.3+  0.0
    991101 750  0.5-  0.3+    991222 726  0.5+  0.8-    000211 704  0.0   0.0
    991101 750  0.4-  0.0     991222 726  0.1-  0.0     000211 704  0.3+  0.1+
    991101 118  0.4-  0.2+    991222 726  0.3-  0.1-    000211 704  0.3-  0.1+
    991101 118  0.4-  0.2+    991222 726  0.1-  0.4-    000211 704  0.3-  0.8+
    991102 704  0.2-  1.0+    991222 726  0.2-  0.7-    000211 704  0.3-  0.7+
    991102 704  0.2-  0.2+    991224 670  0.0   0.1+    000211 118  0.4+  0.1-
    991102 704  0.4-  0.1+    991224 670  0.1+  0.2+    000211 118  0.2+  0.3+
    991102 704  0.1-  0.6+    991224 670  0.1+  0.4+    000212 610  0.7-  0.0
    991102 704  0.6-  0.2+    991224 900  0.2+  0.3+    000212 610  0.0   0.1+
    991103 860  1.3+  0.2+    991224 900  0.1-  0.3+    000212 610  0.7+  0.2+
    991103 860  1.0+  0.4-    991225 355  0.1-  0.2+    000212 610  1.4+  0.4+
    991103 860  1.9+  1.0-    991225 355  0.2-  0.2-    000212 610  2.1+  0.5+
    991105 294  0.1+  0.4-    991225 355  0.0   0.1-    000212 557  0.4-  0.5+
    991105 294  0.2-  0.4-    991227 352  0.0   0.1-    000212 557  0.8+  0.0
    991105 294  0.7+  0.1-    991227 352  0.0   0.1-    000220 611  0.1-  0.3-
    991105 900  0.3-  0.1+    991227 352  0.0   0.2-    000220 611  0.3+  0.3-
    991105 900  0.4-  0.0     991230 704  0.6-  0.5+    000220 611  0.1+  0.4+
    991105 610  0.4+  0.4-    991230 704  0.9-  1.0+    000220 611  0.7-  0.3-
    991105 610  0.4+  0.4-    991230 704  0.9-  1.0+    000223 610  1.0-  1.4+
    991105 610  0.3+  0.4-    991230 704  1.4-  1.1+    000223 610  0.8-  0.9+
    991105 610  0.3+  0.2-    991230 704  1.1-  1.3+    000223 610  0.8-  0.4+
    991105 610  0.2+  0.2-    991230 610  0.8-  1.7+    000223 610  0.7-  0.1-
    991106 750  0.3-  0.0     991230 610  0.7-  1.4+    000223 610  0.6-  0.6-
    991106 750  0.1-  0.3-    991230 944  1.2+  0.1-    000226 118  0.1-  0.3+
    991106 355  0.1-  0.2-    991230 610  0.7-  1.0+    000226 118  0.4+  0.1+
    991106 355  0.0   0.4-    991230 610  0.6-  0.7+    000304 704  0.9+  0.4-
    991106 355  0.2-  0.4-    991230 610  0.4-  0.3+    000304 704  0.6-  0.9+
    991107 294  0.4-  0.2-    991230 944  0.1+  0.2-    000304 704  1.2-  0.9-
    991107 294  0.8-  0.2-    991230 944  0.8-  0.4+    000304 704  0.6+  0.1-
    991108 699  0.6-  0.3+    991230 944  0.3-  0.1-    000304 704  1.5+  0.1-
    991108 699  0.3-  0.4+    991231 704  0.2-  0.2+    000307 360  0.2+  0.2+
    991108 699  0.7-  0.3+    991231 704  0.0   0.2+    000307 360  0.3+  0.7+
    991110 121  0.2+  0.1-    991231 704  0.1-  0.2+    000307 360  0.4+  0.3+
    991110 121  0.2+  0.2-    991231 704  0.0   0.4+    000402 611  0.8+  0.5-
    991110 121  0.2+  0.1-    991231 704  0.1-  0.3+    000402 611  0.1+  0.0
    991110 121  0.3+  0.0     000101 944  0.1-  0.3+    000402 611  0.5-  0.2-
    991110 121  0.2+  0.1-    000101 944  0.6+  0.2+    000402 611  0.2-  0.7-
    991110 121  0.3+  0.0     000101 944  0.3+  0.1+
    
